Saginaw, MI

6:16 AM EDT on May 28, 2018 (GMT -0400)
MBS International

Weather History for KMBS - December, 2012

Change the Weather History Date:

Monday, December 31, 2012

  Actual Average Record
Temperature  
Mean Temperature 30 °F 24 °F  
Max Temperature 36 °F 30 °F 55 °F (2004)
Min Temperature 24 °F 17 °F 1 °F (2017)
Degree Days  
Heating Degree Days 35    
Month to date heating degree days  
Since 1 July heating degree days  
Cooling Degree Days 0    
Month to date cooling degree days  
Year to date cooling degree days  
Moisture  
Dew Point 20 °F    
Average Humidity 69    
Maximum Humidity 77    
Minimum Humidity 61    
Precipitation  
Precipitation 0.00 in 0.06 in 0.93 in (2006)
Month to date precipitation 1.86  
Year to date precipitation 31.54  
Snow  
Snow 0.00 in - - ()
Month to date snowfall  
Since 1 July snowfall  
Snow Depth -    
Sea Level Pressure  
Sea Level Pressure 29.99 in    
Wind  
Wind Speed 12 mph (WSW)    
Max Wind Speed 21 mph    
Max Gust Speed 25 mph    
Visibility 10 miles    
Events      
T = Trace of Precipitation, MM = Missing Value Source: NWS Daily Summary

Daily Weather History Graph

Daily Weather History Graph

Search for Another Location

Airport or City:

Astronomy

Dec. 31, 2012 Rise Set
Actual Time 8:09 AM EST 5:09 PM EST
Civil Twilight 7:36 AM EST 5:42 PM EST
Nautical Twilight 7:00 AM EST 6:18 PM EST
Astronomical Twilight 6:25 AM EST 6:53 PM EST
Moon 8:46 PM EST (12/31) 9:44 AM EST (12/31)
Length of Visible Light 10h 05m
Length of Day
9h 00m
Waning Gibbous, 90% of the Moon is Illuminated
Dec 31
Waning Gibbous
Jan 4
Last Quarter
Jan 11
New
Jan 18
First Quarter
Jan 26
Full

Hourly Weather History & Observations

Time (EST) Temp. Windchill Dew Point Humidity Pressure Visibility Wind Dir Wind Speed Gust Speed Precip Events Conditions
12:00 AM 24.8 °F 14.6 °F 17.6 °F 74% 30.11 in 8.0 mi SSW 10.4 mph - N/A   Mostly Cloudy
12:07 AM 24.8 °F 16.1 °F 17.6 °F 74% 30.11 in 8.0 mi SSW 8.1 mph - N/A   Scattered Clouds
12:53 AM 24.1 °F 14.4 °F 18.0 °F 77% 30.11 in 7.0 mi SSW 9.2 mph - N/A   Clear
1:53 AM 24.1 °F 15.2 °F 18.0 °F 77% 30.08 in 7.0 mi SSW 8.1 mph - N/A   Clear
2:53 AM 24.1 °F 16.0 °F 18.0 °F 77% 30.06 in 8.0 mi SSW 6.9 mph - N/A   Clear
3:53 AM 25.0 °F 16.3 °F 18.0 °F 75% 30.03 in 9.0 mi SSW 8.1 mph - N/A   Clear
4:53 AM 25.0 °F 15.5 °F 18.0 °F 75% 29.99 in 9.0 mi SSW 9.2 mph - N/A   Clear
5:53 AM 28.0 °F 17.0 °F 18.0 °F 66% 29.97 in 10.0 mi SW 13.8 mph - N/A   Clear
6:53 AM 28.9 °F 15.8 °F 19.0 °F 67% 29.97 in 10.0 mi SW 20.7 mph - N/A   Clear
7:53 AM 28.9 °F 16.9 °F 21.0 °F 72% 29.96 in 10.0 mi SW 17.3 mph 25.3 mph N/A   Overcast
8:53 AM 30.0 °F 18.3 °F 21.9 °F 72% 29.94 in 10.0 mi SW 17.3 mph - N/A   Overcast
9:53 AM 30.9 °F 19.8 °F 23.0 °F 72% 29.93 in 10.0 mi SW 16.1 mph - N/A   Overcast
10:08 AM 30.2 °F 18.9 °F 23.0 °F 75% 29.90 in 10.0 mi SW 16.1 mph - N/A   Overcast
10:53 AM 32.0 °F 20.8 °F 24.1 °F 73% 29.94 in 10.0 mi SW 17.3 mph - N/A   Overcast
11:53 AM 33.1 °F 23.4 °F 26.1 °F 75% 29.93 in 10.0 mi SW 13.8 mph - N/A   Overcast
12:53 PM 35.1 °F 27.9 °F 27.0 °F 72% 29.90 in 10.0 mi SW 9.2 mph - N/A   Overcast
1:53 PM 36.0 °F 27.1 °F 25.0 °F 64% 29.88 in 10.0 mi West 13.8 mph - N/A   Overcast
2:53 PM 35.1 °F 26.4 °F 25.0 °F 67% 29.91 in 10.0 mi West 12.7 mph - N/A   Overcast
3:53 PM 33.1 °F 23.0 °F 24.1 °F 70% 29.94 in 10.0 mi WNW 15.0 mph - N/A   Overcast
4:53 PM 32.0 °F 21.6 °F 21.9 °F 66% 29.95 in 9.0 mi WNW 15.0 mph 23.0 mph N/A   Overcast
5:51 PM 30.2 °F 20.8 °F 21.2 °F 69% 29.95 in 9.0 mi West 11.5 mph - N/A   Overcast
5:53 PM 30.9 °F 22.2 °F 21.9 °F 69% 29.97 in 9.0 mi West 10.4 mph - N/A   Overcast
6:21 PM 30.2 °F 21.3 °F 21.2 °F 69% 29.95 in 9.0 mi West 10.4 mph - N/A   Overcast
6:32 PM 30.2 °F 21.9 °F 21.2 °F 69% 29.95 in 10.0 mi West 9.2 mph - N/A   Overcast
6:53 PM 30.9 °F 21.7 °F 21.0 °F 67% 29.98 in 10.0 mi WNW 11.5 mph - N/A   Overcast
7:07 PM 30.2 °F 20.8 °F 21.2 °F 69% 29.96 in 10.0 mi West 11.5 mph - N/A   Overcast
7:17 PM 30.2 °F 20.8 °F 19.4 °F 64% 29.97 in 10.0 mi WNW 11.5 mph - N/A   Overcast
7:53 PM 28.9 °F 17.7 °F 17.1 °F 61% 30.01 in 10.0 mi WNW 15.0 mph - N/A   Overcast
8:53 PM 28.0 °F 18.6 °F 16.0 °F 61% 30.01 in 10.0 mi WNW 10.4 mph - N/A   Overcast
9:31 PM 28.4 °F 19.7 °F 17.6 °F 64% 30.00 in 10.0 mi NNW 9.2 mph - N/A   Overcast
9:53 PM 28.0 °F 17.0 °F 16.0 °F 61% 30.03 in 10.0 mi NNW 13.8 mph - N/A   Overcast
10:14 PM 26.6 °F 14.3 °F 15.8 °F 64% 30.00 in 10.0 mi NNW 16.1 mph - N/A   Overcast
10:53 PM 27.0 °F 18.0 °F 15.1 °F 61% 30.04 in 10.0 mi NW 9.2 mph - N/A   Overcast
11:53 PM 24.1 °F 13.7 °F 12.9 °F 62% 30.06 in 10.0 mi NW 10.4 mph - N/A   Mostly Cloudy